Regional Weather Roundup
Issued by NWS Upton, NY

Home | Current Version | Previous Version | Text Only | Print | Product List | Glossary On
Versions: 1 2 3 4 5 6 7 8 9 10 11 12 13 14 15 16 17 18 19 20 21 22 23 24 25 26 27 28 29 30 31 32 33 34 35 36 37 38 39 40 41 42 43 44 45 46 47 48 49 50
947
ASUS41 KOKX 081704
RWROKX

REGIONAL WEATHER ROUNDUP
NATIONAL WEATHER SERVICE NEW YORK NY
1200 PM EST MON FEB 08 2016

NOTE: "FAIR" INDICATES FEW OR NO CLOUDS BELOW 12,000 FEET WITH NO
SIGNIFICANT WEATHER AND/OR OBSTRUCTIONS TO VISIBILITY.

NYZ071-072-176-178-NJZ106-104-081800-
NEW YORK CITY METRO AREA


CITY           SKY/WX    TMP DP  RH WIND       PRES   REMARKS
CENTRAL PARK   SNOW      32  27  81 N14G20    29.80F VSB 1/2 WCI  22
LAGUARDIA APRT LGT SNOW  32  27  81 N17G23    29.78F VSB 1   WCI  21
KENNEDY INTL   LGT SNOW  31  27  85 N14G25    29.78F VSB 1   WCI  21
NEWARK/LIBERTY CLOUDY    35  27  72 N16       29.78F WCI  25
BRNX BOT. GARD   N/A     32  28  86 N12       29.79F WCI  23
TETERBORO      LGT SNOW  34  25  69 N14G22    29.78F WCI  25
$$

NYZ177-179-078>081-081800-
LONG ISLAND NEW YORK

CITY           SKY/WX    TMP DP  RH WIND       PRES   REMARKS
FARMINGDALE    LGT SNOW  29  25  85 N16       29.76F VSB 3/4 WCI  17
ISLIP          LGT SNOW  28  23  81 N18G26    29.72F VSB 1   WCI  15
SHIRLEY        LGT SNOW  27  24  89 N16G26    29.74F VSB 1   WCI  15
RIVERHEAD        N/A     28  25  86 E6        29.71F WCI  22
WESTHAMPTON      N/A     26  24  92 MISG      29.73F
EAST HAMPTON   SNOW      26  23  90 N17G26    29.71F VSB 1/2 WCI  12
MONTAUK POINT    N/A     26  23  88 N21G32    29.70F WCI  12
$$

NYZ052-065-067-081800-
HUDSON VALLEY

CITY           SKY/WX    TMP DP  RH WIND       PRES   REMARKS
WHITE PLAINS   SNOW      27  23  85 N15G23    29.76F VSB 1/2 WCI  15
NEWBURGH       PTSUNNY   34  16  47 NE9       29.80F WCI  26
MONTGOMERY     CLOUDY    35  16  45 N12       29.78F WCI  27
POUGHKEEPSIE   CLOUDY    34  11  38 E12       29.81F WCI  25
ALBANY         CLOUDY    34  11  38 NE5       29.86F WCI  30
$$

NJZ001-105-106-008-010-013-015-019>022-104-081800-
NEW JERSEY

CITY           SKY/WX    TMP DP  RH WIND       PRES   REMARKS
NEWARK/LIBERTY CLOUDY    35  27  72 N16       29.78F WCI  25
TETERBORO      LGT SNOW  34  25  69 N14G22    29.78F WCI  25
CALDWELL       CLOUDY    36  20  52 NE9G17    29.78F WCI  29
MORRISTOWN     CLOUDY    37  25  60 NE8G15    29.78F WCI  31
SOMERVILLE     CLOUDY    40  24  53 NE8       29.75F WCI  34
SUSSEX         CLOUDY    35  17  47 NE12      29.77F WCI  27
ANDOVER          N/A     35  22  58 NE8       29.76F WCI  29
TRENTON        CLOUDY    38  27  64 NE14      29.74F WCI  30
MILLVILLE      CLOUDY    42  30  62 NE14G22   29.72F
ATLANTIC CITY  CLOUDY    39  30  70 NE15      29.72F WCI  31
WRIGHTSTOWN    PTSUNNY   38  35  87 N17       29.72F WCI  29
TOMS RIVER     CLOUDY    36  27  69 N16       29.75F WCI  26
BELMAR         CLOUDY    34  23  64 N18       29.75F WCI  23
$$

PAZ047>061-062-071-081800-
EASTERN PENNSYLVANIA

CITY           SKY/WX    TMP DP  RH WIND       PRES   REMARKS
PHILADELPHIA   CLOUDY    44  27  51 NE10      29.75F
ALLENTOWN      CLOUDY    41  26  55 NE8       29.76F
SCRANTON       PTSUNNY   37  24  59 NE8G20    29.73F WCI  31
$$

CTZ002-004>006-009-010-012-RIZ004-006-007-MAZ004-011-015-081800-
SOUTHERN NEW ENGLAND
 IN CT

CITY           SKY/WX    TMP DP  RH WIND       PRES   REMARKS
BRADLEY INTL   LGT SNOW  21  15  78 N15G26    29.81F WCI   8
HARTFORD       SNOW      23  18  81 N12       29.81F VSB 1/2 WCI  12
DANBURY        SNOW      25  19  78 N14G20    29.80F VSB 1/2 WCI  13
WTRBRY/OXFORD  LGT SNOW  21  10  63 N16G23    29.75F VSB 1   WCI   7
BRIDGEPORT     LGT SNOW  26  22  84 N16       29.77F VSB 3/4 WCI  14
MERIDEN        LGT SNOW  24  17  74 N18G28    29.79F VSB 1   WCI  10
NEW HAVEN      LGT SNOW  24  20  84 N17G30    29.76F VSB 3/4 WCI  11
CHESTER        SNOW      25  21  86 N16G26    29.73F VSB 1/2 WCI  12
GROTON         FOG       22  21  96 N18G32    29.71F VSB 1/4 WCI   7
WILLIMANTIC    SNOW      22  17  81 N13G21    29.77F VSB 1/2 WCI  10

 IN RI

CITY           SKY/WX    TMP DP  RH WIND       PRES   REMARKS
PROVIDENCE     SNOW      20  16  84 N23G32    29.74F VSB 1/2 WCI   3
BLOCK ISLAND   CLOUDY    25  21  86 N24G33    29.64F VSB 1   WCI   9
WESTERLY       FOG       22  19  89 N15G24    29.71F VSB 1/4 WCI   9

 IN MA

CITY           SKY/WX    TMP DP  RH WIND       PRES   REMARKS
BOSTON         SNOW      18  14  84 N20G28    29.80F VSB 1/2 WCI   2
WORCESTER      HVY SNOW  15  11  83 NE16G23   29.73F VSB 1/4 WCI  -1
WESTFIELD      LGT SNOW  21  14  74 N14       29.82F VSB 3/4 WCI   8
PROVINCETOWN   HVY SNOW  30  29  96 NE31G45   29.69F VSB 1/4 WCI  15
NANTUCKET      BLWGSNOW  32  30  92 N39G52    29.56F VSB 1/4 WCI  16
$$

ANZ330-335-338-340-345-350-353-355-081800-
COASTAL MARINE OBSERVATIONS


STATION/POSITION TIME  SKY/WX   TEMP    WIND        PRES    VSBY  WAVE
                                AIR SEA DIR/SP/G                  HT/PER
                 (UTC)          (F)     (DEG/KT/KT) (MB)    (MI)  (FT/S)
NY HARB ENTRANCE 1550            32 44  360/ 19/ 23 1007.7         11/11
4S FIRE IS       NOT AVBL
20S FIRE ISLAND  1550            33 45   10/ 27/ 31 1005.6         15/11
GREAT SOUTH BAY  NOT AVBL
23SW MTP         1650            30 46   10/ 29/ 35 1003.1         15/11
HUDSON CANYON    1550            38 51              1001.2         21/13
KINGS POINT      1600            30 39   40/ 18/ 23 1008.9
EXECUTION ROCKS  NOT AVBL
CENTRAL LI SOUND NOT AVBL
EASTERN LI SOUND NOT AVBL
ROBBINS REEF     1600            32      20/ 15/ 19 1008.3
$$


>>>>>>>>>>>>>>>>>>>>>>>>>>>> KEY <<<<<<<<<<<<<<<<<<<<<<<<<<<
>                                                          <
>     SKY/WX - SKY CONDITION/PRESENT WEATHER               <
>     TMP    - TEMPERATURE IN FAHRENHEIT                   <
>     DP     - DEWPOINT IN FAHRENHEIT                      <
>     RH     - RELATIVE HUMIDITY IN PERCENT                <
>     WIND   - DIRECTION AND SPEED IN MPH                  <
>     PRES   - MEAN SEA LEVEL PRESSURE IN INCHES OF HG     <
>     WCI    - WIND CHILL INDEX                            <
>     VSB    - VISIBILITY IN MILES                         <
>     HX     - HEAT INDEX                                  <
>     TC     - TEMPERATURE IN CELSIUS                      <
>     VRB    - VARIABLE WIND DIRECTION                     <
>                                                          <
>>>>>>>>>>>>>>>>>>>>>>>>>>>> KEY <<<<<<<<<<<<<<<<<<<<<<<<<<<






USA.gov is the U.S. government's official web portal to all federal, state and local government web resources and services.